Tracking 28790 objects as of 19-Apr-2024
HD Live streaming from Space Station
objects crossing your sky now

FENGYUN 1C DEB

Track FENGYUN 1C DEB now!
10-day predictions


NORAD ID: 30043
Int'l Code: 1999-025NU
Perigee: 622.5 km
Apogee: 1,061.1 km
Inclination: 98.6 °
Period: 101.6 minutes
Semi major axis: 7212 km
RCS: 0.0335 m2 (small)
Launch date: May 10, 1999
Source: People's Republic of China (PRC)
Launch site: Taiyaun Space Center, China (TSC)

Note: This is SATELLITE DEBRIS
Your satellite tracking list
Your tracking list is empty




NASA's NSSDC Master Catalog

Two Line Element Set (TLE):
1 30043U 99025NU  24110.22673746  .00007473  00000-0  23586-2 0  9997
2 30043  98.6106 215.9580 0304092  76.2764 287.2064 14.17249666888023
Source of the keplerian elements: AFSPC